Tracking 21473 objects as of 18-Sep-2020
HD Live streaming from Space Station
objects crossing your sky now

SL-16 R/B

Track SL-16 R/B now!
10-day predictions
SL-16 R/B is classified as:


NORAD ID: 25861
Int'l Code: 1999-039B
Perigee: 630.5 km
Apogee: 651.3 km
Inclination: 98.2 °
Period: 97.4 minutes
Semi major axis: 7011 km
RCS: 13.5291 m2 (large)
Launch date: July 17, 1999
Source: Commonwealth of Independent States (former USSR) (CIS)
Launch site: TYURATAM MISSILE AND SPACE COMPLEX (TTMTR)

Note: This is a ROCKET BODY
aabbcc
Your satellite tracking list
Your tracking list is empty




NASA's NSSDC Master Catalog

Two Line Element Set (TLE):
1 25861U 99039B   20262.04540917  .00000003  00000-0  79058-5 0  9991
2 25861  98.2106 266.0377 0014796 216.7420 210.3537 14.78590654141444
Source of the keplerian elements: AFSPC